Weather History for KESF - March, 2014

Change the Weather History Date:

Wednesday, March 12, 2014

  Actual Average Record
Temperature  
Mean Temperature 55 °F -  
Max Temperature 68 °F 71 °F 86 °F (1975)
Min Temperature 41 °F 51 °F 28 °F (1998)
Degree Days  
Heating Degree Days 10    
Growing Degree Days 5 (Base 50)    
Moisture  
Dew Point 45 °F    
Average Humidity 66    
Maximum Humidity 93    
Minimum Humidity 25    
Precipitation  
Precipitation 0.00 in - - ()
Sea Level Pressure  
Sea Level Pressure 29.91 in    
Wind  
Wind Speed 6 mph (WNW)    
Max Wind Speed 14 mph    
Max Gust Speed 26 mph    
Visibility 8 miles    
Events      
Averages and records for this station are not official NWS values.
T = Trace of Precipitation, MM = Missing Value Source: NWS Daily Summary

Daily Weather History Graph

Daily Weather History Graph

Search for Another Location

Airport or City:

Trip Planner

Search our weather history database for the weather conditions in past years. The results will help you decide how hot, cold, wet, or windy it might be!

Date:

Astronomy

Mar. 12, 2014 Rise Set
Actual Time 7:22 AM CDT 7:15 PM CDT
Civil Twilight 6:58 AM CDT 7:39 PM CDT
Nautical Twilight 6:30 AM CDT 8:07 PM CDT
Astronomical Twilight 6:02 AM CDT 8:35 PM CDT
Moon 3:56 PM CDT (3/12) 4:43 AM CDT (3/12)
Length of Visible Light 12h 40m
Length of Day
11h 52m
Waxing Gibbous, 85% of the Moon is Illuminated
Mar 12
Waxing Gibbous
Mar 16
Full
Mar 23
Last Quarter
Mar 30
New
Apr 7
First Quarter

Hourly Weather History & Observations

Time (CDT) Temp. Dew Point Humidity Pressure Visibility Wind Dir Wind Speed Gust Speed Precip Events Conditions
12:53 AM 57.9 °F 55.0 °F 90% 29.70 in 7.0 mi SW 4.6 mph - N/A   Clear
1:27 AM 57.0 °F 55.0 °F 93% 29.71 in 1.8 mi WSW 3.5 mph - N/A   Clear
1:40 AM 55.9 °F 54.0 °F 93% 29.71 in 2.5 mi WSW 4.6 mph - N/A   Clear
1:53 AM 57.0 °F 55.0 °F 93% 29.71 in 3.0 mi SW 4.6 mph - N/A   Clear
2:53 AM 57.0 °F 55.0 °F 93% 29.71 in 7.0 mi SW 5.8 mph - N/A   Clear
3:53 AM 55.9 °F 53.1 °F 90% 29.72 in 6.0 mi WSW 4.6 mph - N/A   Clear
4:53 AM 57.0 °F 54.0 °F 89% 29.74 in 9.0 mi WSW 5.8 mph - N/A   Partly Cloudy
5:05 AM 57.9 °F 55.9 °F 93% 29.74 in 9.0 mi WSW 9.2 mph - N/A   Mostly Cloudy
5:41 AM 59.0 °F 55.9 °F 90% 29.76 in 6.0 mi West 6.9 mph - N/A   Overcast
5:53 AM 59.0 °F 55.9 °F 90% 29.77 in 6.0 mi WSW 5.8 mph - N/A   Overcast
6:42 AM 59.0 °F 57.0 °F 93% 29.80 in 7.0 mi West 3.5 mph - N/A   Overcast
6:53 AM 60.1 °F 57.0 °F 90% 29.81 in 7.0 mi Variable 6.9 mph - N/A   Overcast
7:11 AM 59.0 °F 55.9 °F 90% 29.82 in 8.0 mi WNW 6.9 mph - N/A   Mostly Cloudy
7:25 AM 59.0 °F 55.0 °F 87% 29.83 in 9.0 mi WNW 6.9 mph - N/A   Partly Cloudy
7:53 AM 59.0 °F 53.1 °F 81% 29.85 in 10.0 mi Variable 5.8 mph - N/A   Clear
8:53 AM 57.9 °F 46.0 °F 65% 29.91 in 10.0 mi NNW 8.1 mph 26.5 mph N/A   Clear
9:53 AM 59.0 °F 43.0 °F 55% 29.96 in 10.0 mi NNW 13.8 mph 24.2 mph N/A   Clear
10:53 AM 60.1 °F 43.0 °F 53% 29.99 in 10.0 mi North 11.5 mph 21.9 mph N/A   Partly Cloudy
11:53 AM 62.1 °F 42.1 °F 48% 30.01 in 10.0 mi North 10.4 mph 21.9 mph N/A   Partly Cloudy
12:53 PM 66.0 °F 42.1 °F 42% 30.02 in 10.0 mi North 9.2 mph 18.4 mph N/A   Clear
1:53 PM 66.9 °F 41.0 °F 39% 30.02 in 10.0 mi NNW 11.5 mph 18.4 mph N/A   Partly Cloudy
2:53 PM 66.0 °F 37.9 °F 36% 30.02 in 10.0 mi NNW 11.5 mph 20.7 mph N/A   Clear
3:53 PM 66.9 °F 34.0 °F 30% 30.03 in 10.0 mi NNW 13.8 mph 24.2 mph N/A   Clear
4:53 PM 66.9 °F 32.0 °F 27% 30.04 in 10.0 mi NW 9.2 mph 21.9 mph N/A   Clear
5:53 PM 66.0 °F 28.9 °F 25% 30.06 in 10.0 mi Variable 6.9 mph 18.4 mph N/A   Clear
6:53 PM 62.1 °F 26.1 °F 25% 30.07 in 10.0 mi Variable 4.6 mph - N/A   Clear
7:53 PM 57.0 °F 28.0 °F 33% 30.11 in 10.0 mi North 4.6 mph - N/A   Clear
8:53 PM 55.0 °F 27.0 °F 34% 30.14 in 10.0 mi NNW 3.5 mph - N/A   Clear
9:53 PM 48.9 °F 30.9 °F 50% 30.17 in 10.0 mi NNW 3.5 mph - N/A   Clear
10:53 PM 44.1 °F 33.1 °F 65% 30.19 in 10.0 mi Calm Calm - N/A   Clear
11:53 PM 41.0 °F 34.0 °F 76% 30.22 in 10.0 mi Calm Calm - N/A   Clear